Flag for Antigua and Barbuda Weather past 2 weeks in Saint John's, Antigua and Barbuda

Now
86 °F

Scattered clouds.


Feels Like: 95 °F
Forecast: 81 / 87 °F
Wind: 13 mph from Northeast

Location: Vc Bird International Antigua Airport

Current Time: Aug 31, 2015 at 9:42:25 AM

Latest Report: Aug 31, 2015 at 9:00 AM


Visibility: N/A

Pressure: 30.04 "Hg

Humidity: 70%

Dew point: 75 °F

Location of Saint John'sLocation

Historic Weather in Saint John's — Graph

°F

Saint John's temperature yesterday

Maximum temperature yesterday: 88 °F (at 11:00 AM)
Minimum temperature yesterday: 81 °F (at 4:00 AM)
Average temperature yesterday: 84 °F

Past Weeks' High & Low Weather Summary

 TemperatureHumidityPressure
High90 °F (Aug 23, 12:00 PM)94% (Aug 24, 6:00 AM)30.07 "Hg (Aug 24, 6:00 AM)
Low77 °F (Aug 21, 7:00 AM)59% (Aug 16, 2:00 PM)29.77 "Hg (Aug 27, 3:00 AM)
Average83 °F77%29.96 "Hg
* Reported Aug 16 8:00 AM — Aug 31 8:00 AM, Saint John's, Weather by CustomWeather, © 2015

Note: Actual official high and low records may vary slightly from our data, if they occured in-between our weather recording intervals... More about our weather records

Advertising

Saint John's weather history for previous 24 hours

 ConditionsComfort  
Time TempWeatherWind HumidityBarometerVisibility
8:00 AM
Mon, Aug 31
84 °FScattered clouds.13 mph74%30.04 "HgN/A
7:00 AM82 °FScattered clouds.10 mph79%30.01 "HgN/A
6:00 AM81 °FPassing clouds.8 mph79%30.01 "HgN/A
5:00 AM81 °FPassing clouds.9 mph84%29.98 "HgN/A
3:00 AM81 °FPassing clouds.8 mph84%30.01 "HgN/A
2:00 AM81 °FPassing clouds.8 mph84%30.01 "HgN/A
1:00 AM81 °FPassing clouds.9 mph84%30.01 "HgN/A
12:00 AM81 °FPassing clouds.9 mph84%30.01 "HgN/A
11:00 PM
Sun, Aug 30
82 °FPassing clouds.9 mph79%30.04 "HgN/A
10:00 PM82 °FPassing clouds.10 mph79%30.04 "HgN/A
9:00 PM82 °FPassing clouds.8 mph79%30.04 "HgN/A
8:00 PM82 °FPassing clouds.7 mph79%30.01 "HgN/A
7:00 PM82 °FPassing clouds.8 mph79%30.01 "HgN/A
5:00 PM84 °FPassing clouds.12 mph74%29.98 "HgN/A
4:00 PM86 °FPassing clouds.12 mph70%29.98 "HgN/A
3:00 PM86 °FPassing clouds.13 mph70%30.01 "HgN/A
2:00 PM88 °FPassing clouds.13 mph70%30.01 "HgN/A
1:00 PM88 °FPassing clouds.12 mph66%30.01 "HgN/A
12:00 PM86 °FPassing clouds.12 mph75%30.04 "HgN/A
11:00 AM88 °FPassing clouds.12 mph66%30.04 "HgN/A
10:00 AM86 °FScattered clouds.13 mph75%30.04 "HgN/A
9:00 AM86 °FPassing clouds.12 mph70%30.01 "HgN/A
Weather by CustomWeather, © 2015

See weather overviewHow to use our weather pages